Location: Corona
(40.7470°N, 73.8601°W)
Time: 23:23:50
(UTC+00:00)

Orbus 7S? - Pass Details

Date: 22 September 2019
Orbit: 343 x 6430 km, 56.9° (Epoch: 02 October)

Event Time Altitude Azimuth Distance (km) Brightness Sun altitude
Rises 23:27:33 0° 211° (SSW) 2,431 7.0 -7.4°
Reaches altitude 10° 23:29:05 10° 207° (SSW) 1,758 6.2 -7.7°
Maximum altitude 23:32:41 63° 126° (SE) 875 4.1 -8.3°
Drops below altitude 10° 23:40:49 10° 47° (NE) 3,879 7.2 -9.9°
Sets 23:45:48 0° 46° (NE) 5,824 8.2 -10.8°
